Weather History for KQIR - November, 2012

Change the Weather History Date:

Monday, November 12, 2012

  Actual Average Record
Temperature  
Mean Temperature 79 °F -  
Max Temperature 92 °F - - ()
Min Temperature 66 °F - - ()
Cooling Degree Days 14    
Growing Degree Days 29 (Base 50)    
Moisture  
Dew Point 62 °F    
Average Humidity 58    
Maximum Humidity 79    
Minimum Humidity 26    
Precipitation  
Precipitation 0.00 in - - ()
Sea Level Pressure  
Sea Level Pressure 29.93 in    
Wind  
Wind Speed 3 mph ()    
Max Wind Speed 12 mph    
Max Gust Speed -    
Visibility 6.0 miles    
Events      
T = Trace of Precipitation, MM = Missing Value Source: Averaged Metar Reports

Daily Weather History Graph

Daily Weather History Graph

Search for Another Location

Airport or City:

Trip Planner

Search our weather history database for the weather conditions in past years. The results will help you decide how hot, cold, wet, or windy it might be!

Date:

Astronomy

Nov. 12, 2012 Rise Set
Actual Time 5:49 AM AST 4:47 PM AST
Civil Twilight 5:25 AM AST 5:11 PM AST
Nautical Twilight 4:58 AM AST 5:39 PM AST
Astronomical Twilight 4:30 AM AST 6:06 PM AST
Moon 3:55 AM AST (11/12) 3:30 PM AST (11/12)
Length of Visible Light 11h 46m
Length of Day
10h 58m
Waning Crescent, 4% of the Moon is Illuminated
Nov 12
Waning Crescent
Nov 14
New
Nov 20
First Quarter
Nov 28
Full
Dec 6
Last Quarter

Hourly Weather History & Observations

Time (AST) Temp. Heat Index Dew Point Humidity Pressure Visibility Wind Dir Wind Speed Gust Speed Precip Events Conditions
12:55 AM 73.6 °F - 64.6 °F 73% 29.95 in 6.2 mi Calm Calm - N/A   Clear
1:55 AM 69.4 °F - 61.7 °F 76% 29.94 in 6.2 mi Calm Calm - N/A   Clear
2:55 AM 68.5 °F - 61.5 °F 78% 29.93 in 6.2 mi Calm Calm - N/A   Clear
3:55 AM 67.5 °F - 60.4 °F 78% 29.93 in 6.2 mi SSW 3.5 mph - N/A   Clear
4:55 AM 66.7 °F - 60.1 °F 79% 29.94 in 5.6 mi West 5.8 mph - N/A   Clear
5:55 AM 66.0 °F - 59.4 °F 79% 29.96 in 3.7 mi WSW 4.6 mph - N/A   Clear
6:55 AM 69.4 °F - 61.2 °F 75% 29.98 in 5.6 mi SW 5.8 mph - N/A   Haze
7:55 AM 76.3 °F - 68.7 °F 77% 29.99 in 6.2 mi SW 6.9 mph - N/A   Clear
8:55 AM 76.3 °F - 68.7 °F 77% 30.00 in 6.2 mi SW 6.9 mph - N/A   Clear
9:55 AM 86.4 °F 89.4 °F 67.5 °F 53% 29.99 in 6.2 mi SSW 5.8 mph - N/A   Clear
10:55 AM 88.9 °F 88.8 °F 60.8 °F 39% 29.96 in 6.2 mi WSW 3.5 mph - N/A   Clear
11:55 AM 91.2 °F 89.9 °F 57.7 °F 32% 29.92 in 6.2 mi SW 3.5 mph - N/A   Clear
12:55 PM 91.6 °F 89.6 °F 54.7 °F 29% 29.89 in 6.2 mi Calm Calm - N/A   Clear
1:55 PM 92.8 °F 90.6 °F 54.1 °F 27% 29.88 in 6.2 mi NE 3.5 mph - N/A   Clear
2:55 PM 92.3 °F - 52.3 °F 26% 29.88 in 6.2 mi Calm Calm - N/A   Clear
3:55 PM 90.1 °F 90.9 °F 62.6 °F 40% 29.89 in 6.2 mi East 11.5 mph - N/A   Clear
4:55 PM 87.6 °F 86.3 °F 57.2 °F 35% 29.90 in 6.2 mi East 8.1 mph - N/A   Clear
5:55 PM 84.4 °F 84.0 °F 58.6 °F 42% 29.91 in 6.2 mi East 9.2 mph - N/A   Clear
6:55 PM 83.1 °F 83.0 °F 59.0 °F 44% 29.93 in 6.2 mi NE 6.9 mph - N/A   Clear
7:55 PM 81.0 °F 82.7 °F 64.8 °F 58% 29.95 in 6.2 mi East 3.5 mph - N/A   Clear
8:55 PM 79.3 °F - 66.0 °F 64% 29.94 in 6.2 mi East 8.1 mph - N/A   Clear
9:55 PM 77.4 °F - 65.8 °F 67% 29.93 in 6.2 mi East 4.6 mph - N/A   Clear
10:55 PM 75.9 °F - 66.6 °F 73% 29.92 in 6.2 mi ESE 5.8 mph - N/A   Clear
11:55 PM 75.0 °F - 67.1 °F 76% 29.91 in 6.2 mi SE 5.8 mph - N/A   Clear